Вернуться в каталог

STARLINK-35421

АктивенСвязьVLEO
NORAD 66062·PAYLOAD·🇺🇸 United States

Запущен Oct 19, 2025 с Cape Canaveral Space Force Station

Loading…

Ближайшие Пролёты (ближайшие 24 часа)

TLE

СвежийSource: CelesTrak SupGP

Эпоха: Sep 14, 2026, 23:05 UTC

1 66062C 25235E   26257.96229167  .00060376  00000+0  17841-2 0  2572
2 66062  53.1582  83.3632 0001101  77.2002 109.7451 15.34355272    17

Отслеживайте STARLINK-35421 в реальном времени с AllMySat

Download on the App Store